EW8549 Weather Reports


Display with metric or nautical units.
time (UTC)temp
F
wind
direction
speed
MPH
gust
MPH
rain 1hr
in
rain 24hr
in
rain mn
in
humidity
%
barometer
mb
20260505210034 76 237 2.0 12.0 0.00 0.00 0.00 57 1008.2
20260505204526 75 179 1.0 15.0 0.00 0.00 0.00 57 1008.2
20260505203021 76 136 0.0 16.0 0.00 0.00 0.00 58 1008.4
20260505201517 76 139 0.0 17.0 0.00 0.00 0.00 58 1008.3
20260505200017 76 166 4.0 16.0 0.00 0.00 0.00 58 1008.5
20260505194508 75 194 4.0 13.0 0.00 0.00 0.00 58 1008.9
20260505193004 75 175 1.0 12.0 0.00 0.00 0.00 59 1009.1
20260505191609 75 124 4.0 16.0 0.00 0.00 0.00 59 1009.2
20260505190054 74 159 1.0 9.0 0.00 0.00 0.00 57 1009.2
20260505184549 74 207 0.0 9.0 0.00 0.00 0.00 56 1009.3
20260505183044 74 154 0.0 5.0 0.00 0.00 0.00 56 1009.4
20260505181546 73 131 0.0 3.0 0.00 0.00 0.00 57 1009.5
20260505180036 73 179 0.0 7.0 0.00 0.00 0.00 57 1009.9
20260505174531 74 105 0.0 7.0 0.00 0.00 0.00 58 1010.1
20260505173027 74 103 0.0 8.0 0.00 0.00 0.00 58 1010.3
20260505171523 74 103 0.0 7.0 0.00 0.00 0.00 58 1010.4
20260505170018 74 125 0.0 9.0 0.00 0.00 0.00 58 1010.6
20260505164513 74 89 0.0 8.0 0.00 0.00 0.00 57 1010.6
20260505163009 73 235 0.0 10.0 0.00 0.00 0.00 58 1010.8
20260505161514 73 205 0.0 7.0 0.00 0.00 0.00 59 1011.1
20260505153052 72 273 0.0 11.0 0.00 0.00 0.00 58 1010.7
20260505151546 71 259 1.0 10.0 0.00 0.00 0.00 59 1010.8
20260505124602 60 111 0.0 0.0 0.00 0.00 0.00 1 1010.5
20260505123102 61 113 0.0 0.0 0.00 0.00 0.00 8 1010.3
20260505121552 61 113 0.0 0.0 0.00 0.00 0.00 11 1010.2
20260505120054 60 221 0.0 0.0 0.00 0.00 0.00 7 1010.0
20260505114543 59 159 0.0 0.0 0.00 0.00 0.00 1 1009.7
20260505113038 57 129 0.0 0.0 0.00 0.00 0.00 1 1009.3
20260505111534 56 140 0.0 0.0 0.00 0.00 0.00 1 1009.2
20260505101516 57 174 0.0 0.0 0.00 0.00 0.00 1 1009.0
20260505100016 57 129 0.0 0.0 0.00 0.00 0.00 1 1009.1
20260505094508 57 266 0.0 0.0 0.00 0.00 0.00 1 1009.1
20260505093003 57 136 0.0 4.0 0.00 0.00 0.00 1 1009.3
20260505091611 57 155 0.0 0.0 0.00 0.00 0.00 1 1009.5
20260505084555 57 217 0.0 0.0 0.00 0.00 0.00 1 1009.7
20260505083055 58 159 0.0 0.0 0.00 0.00 0.00 1 1009.7
20260505081547 58 147 0.0 0.0 0.00 0.00 0.00 1 1009.4
20260505080044 58 143 0.0 0.0 0.00 0.00 0.00 2 1009.6
20260505074532 59 160 0.0 0.0 0.00 0.00 0.00 3 1009.7
20260505073033 59 247 0.0 0.0 0.00 0.00 0.00 11 1009.8
20260505071522 60 261 0.0 0.0 0.00 0.00 0.00 15 1009.9
20260505070018 60 218 0.0 0.0 0.00 0.00 0.00 17 1009.8
20260505064514 60 226 0.0 0.0 0.00 0.00 0.00 17 1010.0
20260505063009 60 155 0.0 0.0 0.00 0.00 0.00 17 1010.0
20260505061504 60 143 0.0 0.0 0.00 0.00 0.00 16 1010.1
20260505060104 60 240 0.0 0.0 0.00 0.00 0.00 12 1010.1
20260505054558 60 235 0.0 0.0 0.00 0.00 0.00 8 1010.1
20260505053051 60 167 0.0 0.0 0.00 0.00 0.00 2 1010.2
20260505051547 60 273 0.0 0.0 0.00 0.00 0.00 1 1010.4
20260505041529 62 132 0.0 0.0 0.00 0.00 0.00 16 1010.1
20260505040029 62 151 0.0 0.0 0.00 0.00 0.00 18 1010.2
20260505034523 62 151 0.0 0.0 0.00 0.00 0.00 20 1010.0
20260505033022 62 185 0.0 0.0 0.00 0.00 0.00 18 1010.1
20260505031513 62 185 0.0 0.0 0.00 0.00 0.00 14 1010.2
20260505030007 63 185 0.0 0.0 0.00 0.00 0.00 21 1010.1
20260505024502 64 185 0.0 0.0 0.00 0.00 0.00 29 1009.9
20260505023058 64 184 0.0 0.0 0.00 0.00 0.00 34 1009.9
20260505021555 64 175 0.0 0.0 0.00 0.00 0.00 37 1009.5
20260505020051 65 175 0.0 0.0 0.00 0.00 0.00 51 1009.5
20260505014601 66 181 0.0 0.0 0.00 0.00 0.00 48 1009.4
20260505013042 67 181 0.0 0.0 0.00 0.00 0.00 50 1009.4
20260505011545 69 181 0.0 0.0 0.00 0.00 0.00 58 1009.2
20260505010032 70 181 0.0 0.0 0.00 0.00 0.00 57 1009.3
20260505004528 72 181 0.0 0.0 0.00 0.00 0.00 54 1009.2
20260505003022 74 200 0.0 0.0 0.00 0.00 0.00 50 1009.1
20260505001518 76 155 0.0 0.0 0.00 0.00 0.00 48 1009.2
20260505000015 77 197 0.0 0.0 0.00 0.00 0.00 46 1009.2
20260504234509 77 167 0.0 0.0 0.00 0.00 0.00 45 1009.2
20260504233005 78 228 0.0 0.0 0.00 0.00 0.00 45 1009.2
20260504231600 78 153 0.0 0.0 0.00 0.00 0.00 44 1009.3
20260504230056 79 201 0.0 7.0 0.00 0.00 0.00 43 1009.3
20260504224551 79 230 0.0 4.0 0.00 0.00 0.00 42 1009.2
20260504223046 80 221 0.0 8.0 0.00 0.00 0.00 40 1009.4
20260504221543 80 252 0.0 0.0 0.00 0.00 0.00 42 1009.7
20260504220038 80 232 0.0 5.0 0.00 0.00 0.00 41 1009.7
20260504214533 80 255 0.0 6.0 0.00 0.00 0.00 41 1009.8
20260504213029 79 296 0.0 8.0 0.00 0.00 0.00 42 1010.1
20260504211524 79 288 0.0 11.0 0.00 0.00 0.00 43 1010.3